Regional Weather Roundup
Issued by NWS Little Rock, AR

Home | Current Version | Previous Version | Graphics & Text | Print | Product List | Glossary On
Versions: 1 2 3 4 5 6 7 8 9 10 11 12 13 14 15 16 17 18 19 20 21 22 23 24 25 26 27 28 29 30 31 32 33 34 35 36 37 38 39 40 41 42 43 44 45 46 47 48 49 50
000
ASUS44 KLZK 301405
RWRLZK

WEATHER ROUNDUP FOR ARKANSAS
NATIONAL WEATHER SERVICE LITTLE ROCK AR
800 AM CST FRI JAN 30 2015

NOTE: "FAIR" INDICATES FEW OR NO CLOUDS BELOW 12,000 FEET WITH NO
SIGNIFICANT WEATHER AND/OR OBSTRUCTIONS TO VISIBILITY.

ARZ001-003-010-029-301500-
NORTHWEST ARKANSAS

CITY           SKY/WX    TMP DP  RH WIND       PRES   REMARKS
FAYETTEVILLE   PTCLDY    26  23  88 VRB3      30.50S
FORT SMITH     CLEAR     30  26  85 CALM      30.53R
HARRISON       PTCLDY    28  24  85 NW3       30.50R
BENTONVILLE    PTCLDY    27  21  80 NE5       30.50F WCI  21
ROGERS         MOCLDY    24  22  91 E6        30.50S WCI  17
SILOAM SPGS    PTCLDY    27  18  69 E3        30.51R
HIGHFILL       PTCLDY    26  22  84 NE6       30.49F WCI  19
SPRINGDALE     CLEAR     28  23  80 E5        30.51S WCI  23
$$

ARZ004-005-016-301500-
NORTH CENTRAL ARKANSAS

CITY           SKY/WX    TMP DP  RH WIND       PRES   REMARKS
BATESVILLE     CLEAR     30  25  80 NW3       30.52S
FLIPPIN        CLEAR     27  19  74 CALM      30.52S
MTN HOME       CLEAR     27  25  92 NW3       30.51R
$$

ARZ040-041-301500-
WEST CENTRAL ARKANSAS

CITY           SKY/WX    TMP DP  RH WIND       PRES   REMARKS
MENA           CLEAR     32  30  93 CALM      30.50R
MOUNT IDA      CLEAR     27  23  85 CALM      30.50R
$$

ARZ009-017-025-026-028-301500-
NORTHEAST ARKANSAS

CITY           SKY/WX    TMP DP  RH WIND       PRES   REMARKS
CORNING        FAIR      32  27  80 N7        30.53R WCI  26
JONESBORO      CLEAR     31  27  85 NW7       30.52R WCI  24
NEWPORT        CLEAR     31  27  85 N9        30.54R WCI  23
WALNUT RIDGE   CLEAR     30  25  80 NW6       30.54R WCI  24
BLYTHEVILLE    CLEAR     32  29  88 N5        30.52R WCI  27
NW BLYTHEVILLE CLEAR     34  28  80 N3        30.52
$$

ARZ022-023-033-042-044-301500-
CENTRAL ARKANSAS

CITY           SKY/WX    TMP DP  RH WIND       PRES   REMARKS
LITTLE ROCK    PTCLDY    35  27  72 N7        30.53R WCI  29
N LITTLE ROCK  PTCLDY    33  29  83 N6        30.53R WCI  28
JACKSONVILLE   CLEAR     33  26  76 N2        30.51R
SEARCY         CLEAR     32  28  85 N6        30.54R WCI  26
HOT SPRINGS    CLEAR     31  27  85 CALM      30.53R
RUSSELLVILLE   CLEAR     30  25  81 CALM      30.51R
CLINTON        FAIR      28  27  93 CALM      30.55R
$$

ARZ036-301500-
EAST ARKANSAS

CITY           SKY/WX    TMP DP  RH WIND       PRES   REMARKS
WEST MEMPHIS   CLEAR     34  29  82 N9        30.49R WCI  27
$$

ARZ050-053-066-070-073-301500-
SOUTHWEST ARKANSAS

CITY           SKY/WX    TMP DP  RH WIND       PRES   REMARKS
ARKADELPHIA    FAIR      30  30 100 CALM      30.55R
CAMDEN         CLEAR     30  28  93 MISG      30.53R
TEXARKANA      CLEAR     36  31  82 NE6       30.52R
EL DORADO      CLEAR     37  29  72 N7        30.51R
DE QUEEN       CLEAR     28  27  96 CALM      30.51R FOG
$$

ARZ056-057-069-301500-
SOUTHEAST ARKANSAS

CITY           SKY/WX    TMP DP  RH WIND       PRES   REMARKS
PINE BLUFF     CLEAR     35  28  75 N10       30.52R WCI  27
STUTTGART      CLEAR     34  28  80 N5        30.52R WCI  30
MONTICELLO     CLEAR     37  29  72 N5        30.51R

$$





USA.gov is the U.S. government's official web portal to all federal, state and local government web resources and services.